INMARSAT 3-F5
1 25153U 98006B   03061.83073845  .00000125  00000-0  10000-3 0  8527
2 25153   0.4645 353.6125 0002981 340.5187 150.1062  1.00269240 18626
HOT BIRD 4
1 25237U 98013A   03055.98151369  .00000074  00000-0  10000-3 0  3309
2 25237   0.0547 293.1775 0007524 338.0934 249.5459  1.00273950 18609
NOAA 15
1 25338U 98030A   03063.99999841  .00000152  00000-0  84365-4 0   282
2 25338  98.5489  85.7583 0009661 277.4185  82.5896 14.24250364249855
RESURS O1-N4
1 25394U 98043A   03063.97109080 +.00000080 +00000-0 +53979-4 0 04645
2 25394 098.6297 141.6317 0002411 073.2725 286.8719 14.23881817241587
TMSAT
1 25396U 98043C   03063.94496020 -.00000043 +00000-0 +00000-0 0 09780
2 25396 098.6235 140.7646 0003678 093.4135 266.7465 14.23515234241572
TECHSAT 1B
1 25397U 98043D   03063.97236969 +.00000035 +00000-0 +34703-4 0 01321
2 25397 098.6200 139.6580 0002165 097.4776 262.6650 14.22962369241546
ASTRA 2A
1 25462U 98050A   03058.24227095  .00000000  00000-0  10000-3 0  5358
2 25462   0.0563 284.0808 0004996  69.9559 278.0076  1.00271461 16522
EUTELSAT W2
1 25491U 98056A   03063.86972223  .00000095  00000-0  00000+0 0  5843
2 25491   0.0150 242.2540 0003689 104.5493 144.4454  1.00272151 16192
HOT BIRD 5
1 25495U 98057A   03061.90551103  .00000120  00000-0  00000+0 0  5020
2 25495   0.0305 116.4803 0000328 142.7027 254.0481  1.00130489 16146
SEDSAT 1
1 25509U 98061B   03064.40904754  .00000551  00000-0  10093-3 0  7941
2 25509  31.4300  69.3537 0356938  72.4762 291.4595 14.27450749227435
PAN SAT
1 25520U 98064B   03063.60085001 +.00002616 +00000-0 +13032-3 0 06458
2 25520 028.4610 130.3881 0006043 143.3198 216.7799 15.13945775239713
ISS (ZARYA)
1 25544U 98067A   03064.52491975  .00021380  00000-0  27263-3 0  7518
2 25544  51.6364 180.8984 0011794 279.8984 183.5047 15.59171192244834
ORSTED
1 25635U 99008B   03064.00199388  .00000716  00000-0  18957-3 0  8466
2 25635  96.4527  46.7831 0143942 283.7140  74.8070 14.44865861212023
SUNSAT
1 25636U 99008C   03063.93258708 +.00000350 +00000-0 +10022-3 0 06726
2 25636 096.4554 045.3573 0147902 290.5342 068.0035 14.42967858211888
UOSAT 12
1 25693U 99021A   03064.18112404  .00000586  00000-0  10370-3 0  7597
2 25693  64.5611 326.0619 0021787 315.6766  44.2630 14.76405075208419
FENGYUN 1C
1 25730U 99025A   03064.60761365  .00000087  00000-0  70967-4 0  7805
2 25730  98.6330  88.4439 0013829 322.9602  37.0784 14.11736013196755
ASTRA 1H
1 25785U 99033A   03057.00000000  .00000104  00000-0  10000-3 0  3731
2 25785   0.0122 319.8851 0002995  65.1991 149.5614  1.00273184 13577
TERRA
1 25994U 99068A   03064.28243379  .00000626  00000-0  14881-3 0  7539
2 25994  98.1953 140.2730 0000698 101.7384 258.3908 14.57147059170815
JAWSAT
1 26061U 00004A   03063.56609802  .00000370  00000-0  14163-3 0  7791
2 26061 100.2029 123.2289 0034845 239.4681 120.3055 14.37838207162542
OPAL
1 26063U 00004C   03063.70452649 +.00000088 +00000-0 +50770-4 0 07357
2 26063 100.2063 120.8436 0036698 247.1464 112.5836 14.35486012162420
ASUSAT
1 26065U 00004E   03064.56721563  .00000123  00000-0  62729-4 0  7489
2 26065 100.2094 122.0194 0036970 245.4917 114.2408 14.35514531162532
GOES 11
1 26352U 00022A   03063.34049868 -.00000043  00000-0  10000-3 0   506
2 26352   0.1748 102.1606 0003194 208.7737 219.6232  1.00266621 10377
EUTELSAT W4
1 26369U 00028A   03062.58668808  .00000142  00000-0  00000+0 0  3569
2 26369   0.0433 355.6995 0002598 346.7563  65.7433  1.00271513 10186
FENGYUN 2B
1 26382U 00032A   03062.22690641 -.00000344  00000-0  00000+0 0  8043
2 26382   0.5390 287.9954 0002204 190.6933 228.0471  1.00270798  9831
EUTELSAT W1
1 26487U 00052A   03063.87140047  .00000059  00000-0  10000-3 0  3630
2 26487   0.0330 285.8059 0004106  65.6198 134.4156  1.00274020  9164
ASTRA 2B
1 26494U 00054A   03057.00000000  .00000134  00000-0  00000+0 0  2562
2 26494   0.0178 354.5658 0005000 302.8402 246.1704  1.00276704  8990
NOAA 16
1 26536U 00055A   03063.75497975  .00000549  00000-0  32486-3 0  2321
2 26536  98.9049  11.9342 0009821 266.4499  93.5699 14.11914288126158
SAUDISAT 1A
1 26545U 00057A   03064.42149593  .00001446  00000-0  21029-3 0  4205
2 26545  64.5609 346.2725 0051104 236.3518 123.2730 14.79018272131411
UNISAT
1 26547U 00057C   03064.12976504  .00002101  00000-0  28945-3 0  4397
2 26547  64.5596 349.3453 0058331 238.4398 121.1009 14.79804508131341
TIUNGSAT 1
1 26548U 00057D   03063.88092045  .00001600  00000-0  21958-3 0  4232
2 26548  64.5600 340.6643 0044487 235.6862 124.0017 14.81314779131480
SAUDISAT 1B
1 26549U 00057E   03063.92694307 +.00000977 +00000-0 +15161-3 0 07088
2 26549 064.5518 351.9782 0055686 236.4453 123.1317 14.77949593131268
AMSAT OSCAR 40
1 26609U 00072B   03062.14261750 -.00000314  00000-0  10000-3 0  3132
2 26609   8.2009  61.8922 7947545 149.3793 302.8222  1.25596061 10734
GOES 12
1 26871U 01031A   03063.15934101 -.00000202  00000-0  10000-3 0  8498
2 26871   0.2936 276.4641 0002255  24.5193 187.7453  1.00359856  5977
PCSAT
1 26931U 01043C   03063.94191770 +.00000137 +00000-0 +86448-4 0 04191
2 26931 067.0467 218.6096 0005136 269.5575 090.4937 14.29121515074407
SAPPHIRE
1 26932U 01043D   03064.19807863  .00000115  00000-0  77543-4 0  4111
2 26932  67.0529 217.6514 0004432 246.0806 113.9835 14.29299218 74466
ENVISAT
1 27386U 02009A   03064.42530243 -.00000069  00000-0 -95686-5 0  9663
2 27386  98.5513 132.7617 0001126  87.1819 272.9493 14.32248658 52871
IDEFIX/ARIANE 42P
1 27422U 02021B   03064.24687936  .00000178  00000-0  89750-4 0  2475
2 27422  98.6934 143.3788 0013368 105.9669 254.2986 14.27976287 43555
FENGYUN 1D
1 27431U 02024B   03063.93721273 +.00000000 +00000-0 +24717-4 0 02348
2 27431 098.7654 112.5310 0016257 084.3420 275.9603 14.09180178041391
NOAA 17
1 27453U 02032A   03063.97691036  .00000193  00000-0  10479-3 0  3262
2 27453  98.7542 135.1113 0011201 318.9228  41.1106 14.23300764 36014
HOT BIRD 6
1 27499U 02038A   03054.87288413  .00000075  00000-0  10000-3 0   703
2 27499   0.0150 173.7812 0009015 197.5701 109.1063  1.00270140  1885
RUBIN 2
1 27605U 02058A   03064.32885899  .00000580  00000-0  11408-3 0   744
2 27605  64.5527 152.4181 0035637 107.4673 253.0331 14.71392286 10983
